Regional Weather Roundup
Issued by NWS

Home | Current Version | Previous Version | Graphics & Text | Print | Product List | Glossary On
Versions: 1 2 3 4 5 6 7 8 9 10 11 12 13 14 15 16 17 18 19 20 21 22 23 24 25 26 27 28
000
ASUS45 KPSR 191310
RWRAZ

ARIZONA HOURLY REGIONAL WEATHER ROUNDUP
NATIONAL WEATHER SERVICE PHOENIX AZ
600 AM MST MON FEB 19 2018

NOTE: FAIR INDICATES FEW OR NO CLOUDS BELOW 12,000 FEET WITH NO
SIGNIFICANT WEATHER AND/OR OBSTRUCTIONS TO VISIBILITY.

AZZ001>003-036-191400-
NORTHWEST ARIZONA

CITY           SKY/WX    TMP DP  RH WIND       PRES   REMARKS
BULLHEAD CITY  CLEAR     55  28  35 SW15      29.65R
KINGMAN        PTCLDY    44  27  51 SW28G36   29.61R
$$

AZZ004>008-015-016-018-191400-
NORTH CENTRAL ARIZONA

CITY           SKY/WX    TMP DP  RH WIND       PRES   REMARKS
GRAND CANYON   CLOUDY    35  30  82 SW24G38   29.54F WCI  23
WILLIAMS       CLOUDY    36  27  69 SW18G38   29.58F WCI  25
PRESCOTT       PTCLDY    43  34  70 SW30G41   29.62F
FLAGSTAFF      FLURRIES  35  29  78 SW39G51   29.59F WCI  20
PAYSON         LGT RAIN  43  41  93 VRB6      29.71S
PAGE           PTCLDY    51  20  29 SW21G31   29.42F
$$

AZZ009>014-017-191400-
NORTHEAST ARIZONA

CITY           SKY/WX    TMP DP  RH WIND       PRES   REMARKS
WINSLOW        MOCLDY    46  35  65 VRB3      29.60F
SAINT JOHNS    LGT RAIN  42  37  82 W17G26    29.69S
WINDOW ROCK    LGT RAIN  39  35  86 S17G32    29.66F WCI  30
SHOW LOW       LGT RAIN  39  37  93 S30G44    29.69F WCI  27
$$

AZZ540-542>544-546-548-191400-
GREATER PHOENIX AREA

CITY           SKY/WX    TMP DP  RH WIND       PRES   REMARKS
PHOENIX        PTCLDY    60  51  72 E8        29.69S
BUCKEYE        CLEAR     54  54 100 W5        29.72R
GLENDALE       MOCLDY    59  54  82 S10       29.72
LUKE AFB       MOCLDY    59  52  77 SW10      29.70R
DEER VALLEY    CLOUDY    57  50  77 SW7       29.71R
SCOTTSDALE     MOCLDY    58  51  78 SE6       29.72S
MESA-FALCON    MOCLDY    59  50  72 SE16      29.72
MESA-GATEWAY   MOCLDY    59  50  72 S12       29.75S
CHANDLER       MOCLDY    59  50  72 SE8       29.72
$$

AZZ539-553-191400-
SOUTHWEST MARICOPA COUNTY AND PINAL COUNTY

CITY           SKY/WX    TMP DP  RH WIND       PRES   REMARKS
CASA GRANDE      N/A     58  49  72 S16       29.75F
GILA BEND      FAIR      58  51  75 S12       29.71S
$$

AZZ503-504-507>509-191400-
SOUTHEAST ARIZONA

CITY           SKY/WX    TMP DP  RH WIND       PRES   REMARKS
TUCSON         CLOUDY    57  49  74 NE3       29.80F
DAVIS-MONTHAN  CLOUDY    55  52  88 CALM      29.79S
RYAN FIELD     MOCLDY    57  48  72 S6        29.80
NOGALES        LGT RAIN  50  49  96 S12       29.83S
SIERRA VISTA   CLOUDY    50  42  73 SE13      29.84F
DOUGLAS        CLOUDY    50  45  83 S8        29.85S
SAFFORD        PTCLDY    50  48  93 NE5       29.75F FOG
$$

AZZ532-191400-
SOUTHWEST ARIZONA

CITY           SKY/WX    TMP DP  RH WIND       PRES   REMARKS
YUMA           CLEAR     49  38  65 CALM      29.74S
$$

CAZ041-043-047-048-061-525>527-560>570-191400-
SOUTHERN CALIFORNIA

CITY           SKY/WX    TMP DP  RH WIND       PRES   REMARKS
DOWNTOWN L.A.  PTCLDY    51  21  30 NW5       29.83R
L.A. AIRPORT   MOCLDY    52  24  33 N12G21    29.85R
SAN DIEGO      MOCLDY    56  36  47 W17       29.91F
BURBANK        MOCLDY    48  21  34 N16G29    29.83R
ONTARIO        MOCLDY    49  39  68 SW5       29.81S
RIVERSIDE      CLOUDY    50  39  66 SW6       29.81F
PALM SPRINGS   PTCLDY    58  31  35 E16G22    29.66R
EL CENTRO NAS  LGT RAIN  59  36  42 W31G44    29.77R
IMPERIAL       CLEAR     58  39  49 W25G33    29.74R
BLYTHE         CLEAR     57  40  52 SW24      29.69F
NEEDLES        CLEAR     55  30  38 W18G29    29.66R
$$

NVZ020-UTZ003-191400-
SOUTHERN NEVADA-UTAH

CITY           SKY/WX    TMP DP  RH WIND       PRES   REMARKS
LAS VEGAS      PTCLDY    47  12  24 SW17G28   29.59R
SALT LAKE CITY SNOW      28  26  92 N20       29.45S VSB 1/2 WCI  15
$$

NMZ009-TXZ055-191400-
NEW MEXICO-WEST TEXAS

CITY           SKY/WX    TMP DP  RH WIND       PRES   REMARKS
ALBUQUERQUE    PTCLDY    43  34  70 S10       29.74R
EL PASO        CLOUDY    55  42  61 SW7       29.81S
$$


........................KEY........................
SKY/WX - SKY CONDITION/WEATHER
TMP    - TEMPERATURE IN FAHRENHEIT
DP     - DEW POINT IN FAHRENHEIT
RH     - RELATIVE HUMIDITY IN PERCENT
WIND   - DIRECTION AND SPEED IN MILES PER HOUR (MPH)
VRB    - VARIABLE WIND DIRECTION
PRES   - MEAN SEA LEVEL PRESSURE IN INCHES OF MERCURY
         F - FALLING PRESSURE   R - RISING PRESSURE
         S - STEADY PRESSURE
VSB    - VISIBILITY IN MILES
HX     - HEAT INDEX IN FAHRENHEIT
WCI    - WIND CHILL INDEX IN FAHRENHEIT
TC     - TEMPERATURE IN CELSIUS WHICH IS ALSO KNOWN AS
         TEMPERATURE IN CENTIGRADE
AFB    - AIR FORCE BASE
         LUKE AFB IS LUKE AIR FORCE BASE
         DAVIS-MONTHAN IS DAVIS-MONTHAN AIR FORCE BASE
NAS    - NAVAL AIR STATION
         EL CENTRO NAS IS EL CENTRO NAVAL AIR STATION
N/A    - NOT AVAILABLE





USA.gov is the U.S. government's official web portal to all federal, state and local government web resources and services.